Home > Weather > Sosnowiec > Past weeks

Flag for Poland Past Weather in Sosnowiec, Poland — Yesterday and Last 2 Weeks

Now
59 °F

Fog.


Feels Like: 59 °F
Forecast: 57 / 84 °F
Wind: 5 mph from East

Location: Katowice Airport

Current Time: Aug 28, 2016 at 12:30:54 AM

Latest Report: Aug 28, 2016 at 12:00 AM


Visibility: 5 mi

Pressure: 30.15 "Hg

Humidity: 94%

Dew Point: 57 °F

Location of SosnowiecLocation

Past Weather in Sosnowiec — Graph

°F

Sosnowiec Temperature Yesterday

Maximum temperature yesterday: 82 °F (at 4:00 PM)
Minimum temperature yesterday: 52 °F (at 6:00 AM)
Average temperature yesterday: 68 °F

High & Low Weather Summary for the Past Weeks

 TemperatureHumidityPressure
High82 °F (Aug 27, 4:00 PM)100% (Aug 15, 3:00 AM)30.33 "Hg (Aug 15, 3:00 AM)
Low45 °F (Aug 23, 5:30 AM)37% (Aug 26, 4:30 PM)29.83 "Hg (Aug 18, 4:30 PM)
Average63 °F77%30.12 "Hg
* Reported Aug 12 11:00 PM — Aug 27 11:00 PM, Sosnowiec, Weather by CustomWeather, © 2016

Note: Actual official high and low records may vary slightly from our data, if they occured in-between our weather recording intervals... More about our weather records

Advertising

Sosnowiec Weather History for the Previous 24 Hours

Scroll right to see more
 ConditionsComfort  
Time TempWeatherWind HumidityBarometerVisibility
11:00 PM
Sat, Aug 27
59 °FClear.3 mph100%30.15 "Hg10 mi
10:30 PM61 °FClear.6 mph88%30.15 "Hg10 mi
10:00 PM61 °FClear.5 mph88%30.15 "Hg10 mi
9:30 PM61 °FClear.6 mph94%30.15 "Hg10 mi
9:00 PM64 °FClear.3 mph88%30.15 "Hg10 mi
8:30 PM64 °FPassing clouds.3 mph88%30.15 "HgN/A
8:00 PM70 °FSunny.5 mph73%30.12 "Hg10 mi
7:30 PM73 °FSunny.1 mph65%30.12 "Hg10 mi
7:00 PM79 °FSunny.5 mph51%30.12 "Hg10 mi
6:30 PM79 °FSunny.6 mph48%30.12 "Hg10 mi
6:00 PM81 °FPassing clouds.6 mph42%30.15 "HgN/A
5:30 PM81 °FPassing clouds.7 mph42%30.15 "HgN/A
5:00 PM81 °FPassing clouds.9 mph42%30.15 "HgN/A
4:30 PM82 °FPassing clouds.9 mph42%30.15 "HgN/A
4:00 PM82 °FPassing clouds.8 mph40%30.15 "HgN/A
3:30 PM81 °FPassing clouds.9 mph45%30.18 "HgN/A
3:00 PM81 °FPassing clouds.12 mph45%30.18 "HgN/A
2:30 PM81 °FPassing clouds.9 mph42%30.18 "HgN/A
2:00 PM81 °FPassing clouds.10 mph45%30.18 "HgN/A
1:30 PM79 °FPassing clouds.12 mph45%30.18 "HgN/A
1:00 PM79 °FPassing clouds.12 mph45%30.21 "HgN/A
12:30 PM79 °FPassing clouds.12 mph51%30.21 "HgN/A
12:00 PM77 °FPassing clouds.12 mph51%30.21 "HgN/A
11:30 AM77 °FPassing clouds.13 mph51%30.21 "HgN/A
11:00 AM75 °FPassing clouds.12 mph50%30.21 "HgN/A
10:30 AM75 °FPassing clouds.9 mph57%30.21 "HgN/A
10:00 AM75 °FPassing clouds.8 mph57%30.21 "HgN/A
9:30 AM73 °FPassing clouds.7 mph61%30.21 "HgN/A
9:00 AM72 °FPassing clouds.6 mph69%30.21 "HgN/A
8:30 AM70 °FPassing clouds.3 mph69%30.21 "HgN/A
8:00 AM66 °FSunny.3 mph78%30.21 "Hg10 mi
7:30 AM63 °FSunny.3 mph88%30.21 "Hg10 mi
7:00 AM57 °FSunny.5 mph94%30.21 "Hg10 mi
6:30 AM54 °FClear.5 mph94%30.21 "Hg5 mi
6:00 AM52 °FClear.3 mph100%30.21 "Hg4 mi
5:30 AM54 °FClear.5 mph94%30.21 "Hg6 mi
5:00 AM54 °FClear.5 mph94%30.21 "Hg4 mi
4:30 AM54 °FClear.5 mph94%30.21 "Hg5 mi
4:00 AM54 °FClear.5 mph94%30.21 "Hg5 mi
3:30 AM54 °FClear.5 mph100%30.21 "Hg5 mi
3:00 AM55 °FClear.3 mph94%30.21 "Hg5 mi
2:30 AM54 °FClear.5 mph100%30.21 "Hg5 mi
2:00 AM54 °FClear.2 mph100%30.21 "Hg10 mi
1:30 AM55 °FClear.5 mph94%30.18 "Hg10 mi
1:00 AM55 °FClear.5 mph94%30.18 "Hg10 mi
12:30 AM57 °FClear.2 mph94%30.18 "Hg10 mi
12:00 AM57 °FClear.2 mph94%30.18 "Hg10 mi
Weather by CustomWeather, © 2016

See weather overviewHow to use our weather pages